Location: Newark
(22.3060°N, 114.2134°E)
Time: 01:25:27
(UTC+00:00)

Vanguard 2 - Pass Details

Date: 10 August 2021
Orbit: 553 x 2937 km, 32.9° (Epoch: 27 September)

Event Time Altitude Azimuth Distance (km) Brightness Sun altitude
Rises 18:48:01 0° 280° (W) 3,474 - -39.2°
Reaches altitude 10° 18:51:22 10° 294° (WNW) 2,238 - -38.6°
Maximum altitude 18:55:17 23° 347° (NNW) 1,310 - -38.0°
Exits shadow 18:58:20 11° 40° (NE) 1,766 10.1 -37.4°
Drops below altitude 10° 18:58:35 10° 43° (NE) 1,844 10.2 -37.4°
Sets 19:01:03 0° 59° (ENE) 2,712 11.3 -37.0°
